When you browse on this site, cookies collect data to enhance your experience and personalize the content and advertising you see.
Visit our Privacy Policy to learn more. By continuing to use the site, you agree to this use of cookies and data.
  • In Österreich
  • Länderverzeichnis
  • Für 7 Tage
  • Wassertemperatur
  • Wetterkarte
  • News
  • Widgets
  • user-avatar
    Anmelden

    Stündliche Wetter Herāt

    Heute, 5 Juni, Freitag

    Zeit Temperatur Niederschläge Wind Luftdruck Luftfeuchtigkeit
    00:00 +28°C° 0 mm 4 m/S 678 mmHg 15%
    01:00 +27°C° 0 mm 3 m/S 678 mmHg 15%
    02:00 +27°C° 0 mm 3 m/S 678 mmHg 16%
    03:00 +26°C° 0 mm 3 m/S 677 mmHg 17%
    04:00 +26°C° 0 mm 3 m/S 677 mmHg 17%
    05:00 +28°C° 0 mm 3 m/S 678 mmHg 16%
    06:00 +30°C° 0 mm 3 m/S 679 mmHg 14%
    07:00 +33°C° 0 mm 3 m/S 680 mmHg 12%
    08:00 +35°C° 0 mm 6 m/S 680 mmHg 11%
    09:00 +38°C° 0 mm 8 m/S 680 mmHg 10%
    10:00 +40°C° 0 mm 10 m/S 680 mmHg 8%
    11:00 +42°C° 0 mm 10 m/S 680 mmHg 8%
    12:00 +42°C° 0 mm 10 m/S 680 mmHg 7%
    13:00 +43°C° 0 mm 10 m/S 680 mmHg 7%
    14:00 +43°C° 0 mm 10 m/S 679 mmHg 7%
    15:00 +43°C° 0 mm 10 m/S 679 mmHg 7%
    16:00 +43°C° 0 mm 10 m/S 679 mmHg 7%
    17:00 +40°C° 0 mm 9 m/S 679 mmHg 8%
    18:00 +38°C° 0 mm 8 m/S 678 mmHg 9%
    19:00 +36°C° 0 mm 7 m/S 678 mmHg 10%
    20:00 +34°C° 0 mm 6 m/S 678 mmHg 12%
    21:00 +33°C° 0 mm 6 m/S 679 mmHg 13%
    22:00 +32°C° 0 mm 5 m/S 679 mmHg 15%
    23:00 +32°C° 0 mm 5 m/S 679 mmHg 16%

    Morgen, 6 Juni, Samstag

    Zeit Temperatur Niederschläge Wind Luftdruck Luftfeuchtigkeit
    00:00 +30°C° 0 mm 5 m/S 678 mmHg 17%
    01:00 +29°C° 0 mm 5 m/S 678 mmHg 18%
    02:00 +29°C° 0 mm 5 m/S 678 mmHg 19%
    03:00 +28°C° 0 mm 4 m/S 678 mmHg 19%
    04:00 +27°C° 0 mm 4 m/S 678 mmHg 20%
    05:00 +29°C° 0 mm 5 m/S 678 mmHg 18%
    06:00 +32°C° 0 mm 7 m/S 679 mmHg 16%
    07:00 +34°C° 0 mm 8 m/S 680 mmHg 15%
    08:00 +36°C° 0 mm 10 m/S 680 mmHg 13%
    09:00 +38°C° 0 mm 11 m/S 680 mmHg 11%
    10:00 +39°C° 0 mm 12 m/S 680 mmHg 9%
    11:00 +41°C° 0 mm 12 m/S 680 mmHg 10%
    12:00 +41°C° 0 mm 12 m/S 680 mmHg 10%
    13:00 +42°C° 0 mm 13 m/S 680 mmHg 10%
    14:00 +41°C° 0 mm 12 m/S 680 mmHg 10%
    15:00 +41°C° 0 mm 12 m/S 679 mmHg 10%
    16:00 +41°C° 0 mm 12 m/S 679 mmHg 10%
    17:00 +38°C° 0 mm 11 m/S 679 mmHg 12%
    18:00 +35°C° 0 mm 9 m/S 679 mmHg 13%
    19:00 +34°C° 0 mm 8 m/S 679 mmHg 15%
    20:00 +32°C° 0 mm 8 m/S 679 mmHg 15%
    21:00 +31°C° 0 mm 8 m/S 679 mmHg 15%
    22:00 +29°C° 0 mm 8 m/S 679 mmHg 15%
    23:00 +29°C° 0 mm 7 m/S 679 mmHg 15%

    übermorgen, 7 Juni, Sonntag

    Zeit Temperatur Niederschläge Wind Luftdruck Luftfeuchtigkeit
    00:00 +28°C° 0 mm 7 m/S 679 mmHg 15%
    01:00 +28°C° 0 mm 6 m/S 678 mmHg 15%
    02:00 +27°C° 0 mm 6 m/S 678 mmHg 15%
    03:00 +26°C° 0 mm 5 m/S 678 mmHg 16%
    04:00 +25°C° 0 mm 4 m/S 677 mmHg 16%
    05:00 +27°C° 0 mm 5 m/S 678 mmHg 16%
    06:00 +28°C° 0 mm 5 m/S 679 mmHg 15%
    07:00 +29°C° 0 mm 6 m/S 679 mmHg 15%
    08:00 +32°C° 0 mm 7 m/S 679 mmHg 15%
    09:00 +34°C° 0 mm 8 m/S 680 mmHg 14%
    10:00 +36°C° 0 mm 10 m/S 680 mmHg 14%
    11:00 +37°C° 0 mm 10 m/S 679 mmHg 13%
    12:00 +38°C° 0 mm 10 m/S 679 mmHg 11%
    13:00 +39°C° 0 mm 11 m/S 679 mmHg 10%
    14:00 +39°C° 0 mm 11 m/S 678 mmHg 10%
    15:00 +39°C° 0 mm 11 m/S 678 mmHg 10%
    16:00 +39°C° 0 mm 11 m/S 677 mmHg 11%
    17:00 +37°C° 0 mm 11 m/S 677 mmHg 12%
    18:00 +36°C° 0 mm 10 m/S 677 mmHg 13%
    19:00 +33°C° 0 mm 10 m/S 677 mmHg 15%
    20:00 +32°C° 0 mm 11 m/S 677 mmHg 15%
    21:00 +31°C° 0 mm 11 m/S 678 mmHg 16%
    22:00 +28°C° 0 mm 12 m/S 678 mmHg 16%
    23:00 +27°C° 0 mm 11 m/S 677 mmHg 19%

    8 Juni, Montag

    Zeit Temperatur Niederschläge Wind Luftdruck Luftfeuchtigkeit
    00:00 +26°C° 0 mm 10 m/S 677 mmHg 22%
    01:00 +24°C° 0 mm 10 m/S 677 mmHg 25%
    02:00 +23°C° 0 mm 9 m/S 677 mmHg 31%
    03:00 +22°C° 0 mm 8 m/S 676 mmHg 38%
    04:00 +21°C° 0 mm 7 m/S 676 mmHg 44%
    05:00 +22°C° 0 mm 7 m/S 677 mmHg 43%
    06:00 +23°C° 0 mm 7 m/S 677 mmHg 42%
    07:00 +24°C° 0 mm 7 m/S 677 mmHg 41%
    08:00 +27°C° 0 mm 7 m/S 678 mmHg 36%
    09:00 +29°C° 0 mm 7 m/S 678 mmHg 31%
    10:00 +32°C° 0 mm 7 m/S 678 mmHg 26%
    11:00 +33°C° 0 mm 8 m/S 678 mmHg 23%
    12:00 +35°C° 0 mm 8 m/S 678 mmHg 20%
    13:00 +37°C° 0 mm 9 m/S 678 mmHg 18%
    14:00 +37°C° 0 mm 10 m/S 678 mmHg 19%
    15:00 +36°C° 0 mm 10 m/S 678 mmHg 21%
    16:00 +36°C° 0 mm 11 m/S 677 mmHg 22%
    17:00 +33°C° 0 mm 11 m/S 677 mmHg 26%
    18:00 +31°C° 0 mm 10 m/S 677 mmHg 29%
    19:00 +29°C° 0 mm 9 m/S 677 mmHg 33%
    20:00 +28°C° 0 mm 10 m/S 678 mmHg 34%
    21:00 +27°C° 0 mm 10 m/S 678 mmHg 35%
    22:00 +26°C° 0 mm 10 m/S 678 mmHg 36%
    23:00 +26°C° 0 mm 9 m/S 678 mmHg 35%

    9 Juni, Dienstag

    Zeit Temperatur Niederschläge Wind Luftdruck Luftfeuchtigkeit
    00:00 +24°C° 0 mm 8 m/S 678 mmHg 34%
    01:00 +24°C° 0 mm 7 m/S 678 mmHg 33%
    02:00 +23°C° 0 mm 6 m/S 678 mmHg 32%
    03:00 +22°C° 0 mm 6 m/S 677 mmHg 32%
    04:00 +22°C° 0 mm 5 m/S 677 mmHg 31%
    05:00 +23°C° 0 mm 5 m/S 678 mmHg 28%
    06:00 +24°C° 0 mm 6 m/S 679 mmHg 26%
    07:00 +27°C° 0 mm 6 m/S 679 mmHg 23%
    08:00 +28°C° 0 mm 7 m/S 679 mmHg 21%
    09:00 +31°C° 0 mm 8 m/S 680 mmHg 19%
    10:00 +32°C° 0 mm 9 m/S 680 mmHg 18%
    11:00 +33°C° 0 mm 10 m/S 680 mmHg 16%
    12:00 +34°C° 0 mm 10 m/S 680 mmHg 15%
    13:00 +36°C° 0 mm 10 m/S 679 mmHg 14%
    14:00 +36°C° 0 mm 11 m/S 679 mmHg 14%
    15:00 +36°C° 0 mm 11 m/S 679 mmHg 14%
    16:00 +36°C° 0 mm 11 m/S 679 mmHg 14%
    17:00 +33°C° 0 mm 11 m/S 679 mmHg 14%
    18:00 +31°C° 0 mm 10 m/S 679 mmHg 15%
    19:00 +29°C° 0 mm 10 m/S 679 mmHg 16%
    20:00 +28°C° 0 mm 10 m/S 679 mmHg 16%
    21:00 +27°C° 0 mm 9 m/S 679 mmHg 16%
    22:00 +26°C° 0 mm 9 m/S 679 mmHg 15%
    23:00 +24°C° 0 mm 9 m/S 679 mmHg 16%

    10 Juni, Mittwoch

    Zeit Temperatur Niederschläge Wind Luftdruck Luftfeuchtigkeit
    00:00 +23°C° 0 mm 8 m/S 679 mmHg 17%
    01:00 +22°C° 0 mm 7 m/S 679 mmHg 18%
    02:00 +21°C° 0 mm 6 m/S 678 mmHg 19%
    03:00 +20°C° 0 mm 5 m/S 678 mmHg 20%
    04:00 +19°C° 0 mm 4 m/S 678 mmHg 22%
    05:00 +21°C° 0 mm 4 m/S 679 mmHg 20%
    06:00 +23°C° 0 mm 4 m/S 679 mmHg 18%
    07:00 +26°C° 0 mm 4 m/S 680 mmHg 16%
    08:00 +28°C° 0 mm 5 m/S 680 mmHg 14%
    09:00 +30°C° 0 mm 7 m/S 680 mmHg 12%
    10:00 +32°C° 0 mm 8 m/S 681 mmHg 11%
    11:00 +33°C° 0 mm 9 m/S 681 mmHg 10%
    12:00 +34°C° 0 mm 9 m/S 680 mmHg 10%
    13:00 +36°C° 0 mm 10 m/S 680 mmHg 9%
    14:00 +36°C° 0 mm 10 m/S 680 mmHg 9%
    15:00 +36°C° 0 mm 11 m/S 680 mmHg 9%
    16:00 +36°C° 0 mm 12 m/S 679 mmHg 9%
    17:00 +33°C° 0 mm 11 m/S 679 mmHg 10%
    18:00 +32°C° 0 mm 10 m/S 679 mmHg 11%
    19:00 +29°C° 0 mm 10 m/S 679 mmHg 12%
    20:00 +28°C° 0 mm 9 m/S 679 mmHg 13%
    21:00 +27°C° 0 mm 8 m/S 679 mmHg 14%
    22:00 +24°C° 0 mm 7 m/S 679 mmHg 15%
    23:00 +23°C° 0 mm 7 m/S 679 mmHg 16%
    Mehr zeigen